OK1TBF-14 Weather Reports


Display with metric or nautical units.
time (UTC)temp
F
wind
direction
speed
MPH
gust
MPH
rain 1hr
in
rain 24hr
in
rain mn
in
humidity
%
barometer
mb
20260507010003 54 191 1.0 4.0 0.00 0.00 0.00 85 1006.9
20260507003003 54 81 4.0 8.0 0.00 0.00 0.00 85 1006.4
20260507000024 54 93 7.0 12.0 0.00 0.00 0.00 88 1005.8
20260506233003 53 7 3.0 8.0 0.00 0.00 0.00 86 1006.3
20260506230003 53 275 4.0 13.0 0.00 0.00 0.00 86 1006.4
20260506223003 56 231 4.0 9.0 0.00 0.00 0.00 79 1006.2
20260506220004 58 114 3.0 8.0 0.00 0.00 0.00 75 1005.2
20260506213003 57 89 2.0 4.0 0.00 0.00 0.00 76 1004.9
20260506210024 57 89 6.0 10.0 0.00 0.00 0.00 77 1004.7
20260506203003 57 102 5.0 9.0 0.00 0.00 0.00 77 1004.8
20260506200003 57 94 8.0 13.0 0.00 0.00 0.00 77 1004.8
20260506195003 57 91 8.0 13.0 0.00 0.00 0.00 75 1004.9
20260506193003 58 65 4.0 8.0 0.00 0.00 0.00 74 1005.0
20260506190004 58 320 5.0 14.0 0.00 0.00 0.00 77 1005.0
20260506183003 59 349 6.0 18.0 0.00 0.00 0.00 77 1004.8
20260506180004 62 70 3.0 6.0 0.00 0.00 0.00 67 1004.1
20260506173003 63 92 6.0 9.0 0.00 0.00 0.00 66 1004.1
20260506170024 62 6 4.0 9.0 0.00 0.00 0.00 67 1004.2
20260506163003 67 183 9.0 18.0 0.00 0.00 0.00 57 1004.5
20260506160003 68 156 12.0 27.0 0.00 0.00 0.00 51 1004.4
20260506153003 68 148 10.0 16.0 0.00 0.00 0.00 52 1004.7
20260506150004 68 157 8.0 14.0 0.00 0.00 0.00 50 1004.9
20260506143004 69 146 5.0 8.0 0.00 0.00 0.00 50 1005.5
20260506140003 70 153 4.0 10.0 0.00 0.00 0.00 52 1005.6
20260506133004 69 148 9.0 14.0 0.00 0.00 0.00 49 1006.1
20260506130004 71 165 4.0 9.0 0.00 0.00 0.00 48 1006.1
20260506123003 71 191 3.0 6.0 0.00 0.00 0.00 46 1006.6
20260506120004 70 182 3.0 6.0 0.00 0.00 0.00 49 1007.0
20260506113003 70 222 5.0 11.0 0.00 0.00 0.00 48 1007.0
20260506110003 69 231 3.0 7.0 0.00 0.00 0.00 53 1007.1
20260506103003 68 256 6.0 16.0 0.00 0.00 0.00 53 1007.8
20260506100003 67 216 7.0 13.0 0.00 0.00 0.00 55 1007.6
20260506093024 66 224 5.0 14.0 0.00 0.00 0.00 60 1007.6
20260506090003 64 223 6.0 13.0 0.00 0.00 0.00 63 1007.5
20260506083003 63 241 6.0 13.0 0.00 0.00 0.00 66 1007.6
20260506073024 59 272 7.0 12.0 0.00 0.00 0.00 71 1007.5
20260506043004 53 171 2.0 4.0 0.00 0.00 0.00 86 1006.5
20260506040003 53 144 2.0 4.0 0.00 0.00 0.00 84 1006.2
20260506033004 53 193 3.0 6.0 0.00 0.00 0.00 86 1006.2
20260506030024 54 189 4.0 6.0 0.00 0.00 0.00 81 1006.2
20260506023003 54 187 3.0 4.0 0.00 0.00 0.00 79 1005.8
20260506020024 55 173 4.0 8.0 0.00 0.00 0.00 77 1006.1
20260506013003 56 173 4.0 7.0 0.00 0.00 0.00 71 1005.8